EZY51UW EGNS-EGGD

Flight info

Callsign EZY51UW
Flight time 0h 39m
Altitude 25000
Route TIMIS Q39 NOMSU/N0353F230 Q4 WAL N862 WEVBE
Aircraft A320/M-SDE3FGHIRWY/LB1

Departure

Time 2026-04-20 12:40
Airport Isle of Man Airport (EGNS)

Arrival

Time 2026-04-20 13:19
Airport Bristol Airport (EGGD)
Time Latitude Longitude Altitude Speed Heading
2026-04-20 12:15 54.08587 -4.63319 46 ft 0 kts 45°
2026-04-20 12:23 54.08587 -4.63320 46 ft 0 kts 45°
2026-04-20 12:33 54.08573 -4.63348 43 ft 4 kts 61°
2026-04-20 12:33 54.08566 -4.63389 42 ft 4 kts 99°
2026-04-20 12:33 54.08575 -4.63423 42 ft 1 kts 134°
2026-04-20 12:36 54.08567 -4.63409 45 ft 7 kts 134°
2026-04-20 12:36 54.08508 -4.63333 45 ft 11 kts 187°
2026-04-20 12:37 54.08447 -4.63389 44 ft 10 kts 202°
2026-04-20 12:37 54.08376 -4.63390 43 ft 10 kts 204°
2026-04-20 12:37 54.08352 -4.63482 43 ft 8 kts 258°
2026-04-20 12:37 54.08343 -4.63556 45 ft 3 kts 258°
2026-04-20 12:38 54.08342 -4.63568 46 ft 3 kts 258°
2026-04-20 12:38 54.08325 -4.63637 47 ft 12 kts 240°
2026-04-20 12:38 54.08280 -4.63780 44 ft 14 kts 242°
2026-04-20 12:38 54.08222 -4.63902 39 ft 15 kts 191°
2026-04-20 12:39 54.08185 -4.63521 35 ft 60 kts 78°
2026-04-20 12:39 54.08319 -4.62446 44 ft 123 kts 78°
2026-04-20 12:39 54.08525 -4.60822 373 ft 146 kts 79°
2026-04-20 12:40 54.08743 -4.59116 1026 ft 149 kts 78°
2026-04-20 12:40 54.08967 -4.57371 1547 ft 161 kts 78°
2026-04-20 12:40 54.09196 -4.55370 1863 ft 183 kts 82°
2026-04-20 12:40 54.09029 -4.53117 2141 ft 207 kts 118°
2026-04-20 12:41 54.07911 -4.51382 2483 ft 237 kts 155°
2026-04-20 12:41 54.06313 -4.50372 3164 ft 251 kts 161°
2026-04-20 12:41 54.04630 -4.49499 4114 ft 254 kts 163°
2026-04-20 12:41 54.02917 -4.48661 5093 ft 257 kts 163°
2026-04-20 12:42 54.01182 -4.47806 6002 ft 262 kts 163°
2026-04-20 12:42 53.99421 -4.46919 6873 ft 267 kts 162°
2026-04-20 12:42 53.97627 -4.45993 7683 ft 273 kts 162°
2026-04-20 12:42 53.95787 -4.45028 8490 ft 279 kts 162°
2026-04-20 12:43 53.93916 -4.44037 9318 ft 285 kts 162°
2026-04-20 12:43 53.92010 -4.43019 10133 ft 290 kts 162°
2026-04-20 12:43 53.90050 -4.41940 10639 ft 307 kts 159°
2026-04-20 12:43 53.88075 -4.40264 10928 ft 328 kts 146°
2026-04-20 12:44 53.86275 -4.37794 11549 ft 337 kts 134°
2026-04-20 12:44 53.84794 -4.34700 12291 ft 340 kts 123°
2026-04-20 12:44 53.83445 -4.31382 13053 ft 344 kts 123°
2026-04-20 12:44 53.82073 -4.28033 13818 ft 348 kts 124°
2026-04-20 12:45 53.80683 -4.24647 14507 ft 352 kts 124°
2026-04-20 12:45 53.79276 -4.21227 15133 ft 356 kts 124°
2026-04-20 12:45 53.77853 -4.17769 15745 ft 361 kts 124°
2026-04-20 12:45 53.76412 -4.14268 16396 ft 365 kts 124°
2026-04-20 12:46 53.74954 -4.10730 17029 ft 369 kts 124°
2026-04-20 12:46 53.73476 -4.07153 17642 ft 373 kts 124°
2026-04-20 12:46 53.71981 -4.03546 18264 ft 378 kts 124°
2026-04-20 12:46 53.70465 -3.99894 18829 ft 382 kts 124°
2026-04-20 12:47 53.68951 -3.96249 19351 ft 386 kts 124°
2026-04-20 12:47 53.67386 -3.92475 19871 ft 390 kts 124°
2026-04-20 12:47 53.65837 -3.88742 20272 ft 397 kts 124°
2026-04-20 12:47 53.64243 -3.84902 20746 ft 402 kts 124°
2026-04-20 12:48 53.62626 -3.81016 21229 ft 407 kts 125°
2026-04-20 12:48 53.60991 -3.77099 21704 ft 411 kts 125°
2026-04-20 12:48 53.59334 -3.73138 22182 ft 416 kts 125°
2026-04-20 12:48 53.57659 -3.69143 22638 ft 420 kts 125°
2026-04-20 12:49 53.55967 -3.65108 23092 ft 424 kts 125°
2026-04-20 12:49 53.54413 -3.60862 23577 ft 427 kts 118°
2026-04-20 12:49 53.52990 -3.56492 24187 ft 425 kts 118°
2026-04-20 12:49 53.51588 -3.52109 24628 ft 427 kts 117°
2026-04-20 12:50 53.50186 -3.47683 25014 ft 430 kts 117°
2026-04-20 12:50 53.48779 -3.43233 25244 ft 433 kts 117°
2026-04-20 12:50 53.47376 -3.38811 25290 ft 421 kts 117°
2026-04-20 12:50 53.46008 -3.34532 25297 ft 414 kts 117°
2026-04-20 12:51 53.44647 -3.30293 25286 ft 411 kts 118°
2026-04-20 12:51 53.43287 -3.26086 25290 ft 411 kts 118°
2026-04-20 12:51 53.41922 -3.21876 25300 ft 410 kts 118°
2026-04-20 12:51 53.40408 -3.17824 25304 ft 410 kts 128°
2026-04-20 12:52 53.38502 -3.14278 25301 ft 410 kts 139°
2026-04-20 12:52 53.36261 -3.11357 25293 ft 408 kts 149°
2026-04-20 12:52 53.33772 -3.09110 25289 ft 406 kts 157°
2026-04-20 12:52 53.31224 -3.07073 25326 ft 406 kts 156°
2026-04-20 12:53 53.28683 -3.05034 25329 ft 405 kts 156°
2026-04-20 12:53 53.26145 -3.02997 25330 ft 404 kts 156°
2026-04-20 12:53 53.23614 -3.00971 25328 ft 403 kts 156°
2026-04-20 12:53 53.21085 -2.98950 25300 ft 403 kts 156°
2026-04-20 12:54 53.18558 -2.96931 25296 ft 403 kts 157°
2026-04-20 12:54 53.16025 -2.94911 25290 ft 403 kts 157°
2026-04-20 12:54 53.13494 -2.92897 25287 ft 404 kts 157°
2026-04-20 12:54 53.10953 -2.90899 25288 ft 403 kts 159°
2026-04-20 12:55 53.08313 -2.89397 25291 ft 400 kts 170°
2026-04-20 12:55 53.05580 -2.88669 25287 ft 396 kts 180°
2026-04-20 12:55 53.02843 -2.88686 25280 ft 392 kts 187°
2026-04-20 12:55 53.00119 -2.88931 25272 ft 392 kts 187°
2026-04-20 12:56 52.97430 -2.89165 25282 ft 393 kts 187°
2026-04-20 12:56 52.94700 -2.89398 25256 ft 393 kts 189°
2026-04-20 12:56 52.91962 -2.89630 25253 ft 394 kts 189°
2026-04-20 12:56 52.89228 -2.89902 25253 ft 393 kts 193°
2026-04-20 12:57 52.86528 -2.90513 25261 ft 392 kts 194°
2026-04-20 12:57 52.83827 -2.91148 25255 ft 392 kts 194°
2026-04-20 12:57 52.81124 -2.91784 25249 ft 392 kts 194°
2026-04-20 12:57 52.78421 -2.92420 25266 ft 393 kts 194°
2026-04-20 12:58 52.75715 -2.93055 25264 ft 393 kts 194°
2026-04-20 12:58 52.73005 -2.93688 25260 ft 393 kts 194°
2026-04-20 12:58 52.70278 -2.94196 25254 ft 398 kts 190°
2026-04-20 12:58 52.67512 -2.94429 25177 ft 396 kts 190°
2026-04-20 12:59 52.64786 -2.94647 24785 ft 391 kts 190°
2026-04-20 12:59 52.62074 -2.94864 24294 ft 389 kts 190°
2026-04-20 12:59 52.59375 -2.95084 23822 ft 387 kts 190°
2026-04-20 12:59 52.56692 -2.95304 23324 ft 385 kts 190°
2026-04-20 13:00 52.54033 -2.95521 22876 ft 380 kts 189°
2026-04-20 13:00 52.51402 -2.95736 22435 ft 377 kts 189°
2026-04-20 13:00 52.48798 -2.95948 22009 ft 373 kts 189°
2026-04-20 13:00 52.46220 -2.96158 21587 ft 369 kts 189°
2026-04-20 13:01 52.43663 -2.96370 21169 ft 366 kts 189°
2026-04-20 13:01 52.41128 -2.96581 20763 ft 363 kts 189°
2026-04-20 13:01 52.38611 -2.96788 20357 ft 361 kts 188°
2026-04-20 13:01 52.36112 -2.96995 19957 ft 358 kts 188°
2026-04-20 13:02 52.33664 -2.97197 19550 ft 356 kts 188°
2026-04-20 13:02 52.31198 -2.97400 19183 ft 353 kts 188°
2026-04-20 13:02 52.28748 -2.97603 18793 ft 352 kts 188°
2026-04-20 13:02 52.26305 -2.97805 18383 ft 351 kts 188°
2026-04-20 13:03 52.23875 -2.98004 17969 ft 348 kts 188°
2026-04-20 13:03 52.21467 -2.98197 17611 ft 345 kts 187°
2026-04-20 13:03 52.19078 -2.98390 17243 ft 342 kts 187°
2026-04-20 13:03 52.16705 -2.98581 16876 ft 340 kts 187°
2026-04-20 13:04 52.15113 -2.98709 16645 ft 338 kts 187°
2026-04-20 13:04 52.12771 -2.98897 16273 ft 336 kts 186°
2026-04-20 13:04 52.10448 -2.99086 16103 ft 331 kts 186°
2026-04-20 13:04 52.08155 -2.99270 16013 ft 330 kts 186°
2026-04-20 13:05 52.05867 -2.99453 15886 ft 328 kts 186°
2026-04-20 13:05 52.03590 -2.99635 15753 ft 327 kts 186°
2026-04-20 13:05 52.01319 -2.99820 15643 ft 326 kts 186°
2026-04-20 13:05 51.99053 -3.00005 15511 ft 326 kts 186°
2026-04-20 13:06 51.96792 -3.00196 15376 ft 325 kts 186°
2026-04-20 13:06 51.94539 -3.00392 15264 ft 324 kts 186°
2026-04-20 13:06 51.92319 -3.00597 15120 ft 324 kts 186°
2026-04-20 13:06 51.90065 -3.00806 14733 ft 325 kts 186°
2026-04-20 13:07 51.87802 -3.01036 14296 ft 327 kts 186°
2026-04-20 13:07 51.85497 -3.01298 13820 ft 328 kts 186°
2026-04-20 13:07 51.83245 -3.01564 13347 ft 329 kts 186°
2026-04-20 13:07 51.80954 -3.01838 12870 ft 330 kts 186°
2026-04-20 13:08 51.78636 -3.02118 12394 ft 330 kts 186°
2026-04-20 13:08 51.76353 -3.02398 11972 ft 328 kts 186°
2026-04-20 13:08 51.74147 -3.02673 11560 ft 316 kts 185°
2026-04-20 13:08 51.72002 -3.02945 11156 ft 303 kts 186°
2026-04-20 13:09 51.69921 -3.03225 10757 ft 299 kts 186°
2026-04-20 13:09 51.67863 -3.03488 10360 ft 295 kts 186°
2026-04-20 13:09 51.65829 -3.03761 9944 ft 293 kts 186°
2026-04-20 13:09 51.63802 -3.04037 9506 ft 291 kts 186°
2026-04-20 13:10 51.61801 -3.04343 9073 ft 288 kts 186°
2026-04-20 13:10 51.59811 -3.04674 8653 ft 286 kts 186°
2026-04-20 13:10 51.57845 -3.05025 8227 ft 283 kts 186°
2026-04-20 13:10 51.55896 -3.05394 7812 ft 282 kts 186°
2026-04-20 13:11 51.53951 -3.05792 7398 ft 280 kts 185°
2026-04-20 13:11 51.52025 -3.06214 6966 ft 279 kts 186°
2026-04-20 13:11 51.50106 -3.06671 6577 ft 277 kts 187°
2026-04-20 13:11 51.48217 -3.07115 6149 ft 270 kts 186°
2026-04-20 13:12 51.46400 -3.07556 5732 ft 258 kts 186°
2026-04-20 13:12 51.44660 -3.07985 5320 ft 248 kts 186°
2026-04-20 13:12 51.42984 -3.08416 4904 ft 240 kts 186°
2026-04-20 13:12 51.41360 -3.08846 4477 ft 233 kts 186°
2026-04-20 13:13 51.39781 -3.09265 4061 ft 227 kts 186°
2026-04-20 13:13 51.38229 -3.09527 3648 ft 220 kts 169°
2026-04-20 13:13 51.36911 -3.08567 3258 ft 206 kts 127°
2026-04-20 13:13 51.36472 -3.06555 3053 ft 189 kts 80°
2026-04-20 13:14 51.36889 -3.04597 3004 ft 185 kts 72°
2026-04-20 13:14 51.37046 -3.02573 3011 ft 185 kts 86°
2026-04-20 13:14 51.37116 -3.00522 3011 ft 184 kts 86°
2026-04-20 13:14 51.37196 -2.98524 3020 ft 172 kts 85°
2026-04-20 13:15 51.37270 -2.96706 2999 ft 156 kts 86°
2026-04-20 13:15 51.37339 -2.95029 3005 ft 154 kts 85°
2026-04-20 13:15 51.37412 -2.93261 3005 ft 162 kts 85°
2026-04-20 13:15 51.37486 -2.91454 2882 ft 162 kts 86°
2026-04-20 13:16 51.37559 -2.89655 2690 ft 162 kts 86°
2026-04-20 13:16 51.37632 -2.87855 2482 ft 161 kts 85°
2026-04-20 13:16 51.37704 -2.86064 2260 ft 159 kts 85°
2026-04-20 13:16 51.37773 -2.84354 2043 ft 148 kts 86°
2026-04-20 13:17 51.37836 -2.82773 1864 ft 137 kts 85°
2026-04-20 13:17 51.37899 -2.81269 1647 ft 133 kts 84°
2026-04-20 13:17 51.37959 -2.79798 1391 ft 131 kts 84°
2026-04-20 13:17 51.38009 -2.78327 1263 ft 134 kts 85°
2026-04-20 13:18 51.38073 -2.76855 1100 ft 131 kts 85°
2026-04-20 13:18 51.38125 -2.75390 928 ft 134 kts 85°
2026-04-20 13:18 51.38189 -2.73919 736 ft 130 kts 85°
2026-04-20 13:18 51.38249 -2.72512 631 ft 115 kts 91°
2026-04-20 13:19 51.38280 -2.71579 606 ft 62 kts 86°
2026-04-20 13:19 51.38301 -2.71039 603 ft 39 kts 86°
2026-04-20 13:19 51.38310 -2.70815 616 ft 16 kts 83°
2026-04-20 13:19 51.38376 -2.70744 617 ft 11 kts 21°
2026-04-20 13:20 51.38442 -2.70706 621 ft 9 kts
2026-04-20 13:20 51.38471 -2.70775 613 ft 7 kts 273°
2026-04-20 13:20 51.38469 -2.70828 613 ft 2 kts 268°
2026-04-20 13:20 51.38469 -2.70836 613 ft 3 kts 268°
2026-04-20 13:21 51.38466 -2.70919 614 ft 9 kts 266°
2026-04-20 13:21 51.38469 -2.71004 627 ft 3 kts 318°
2026-04-20 13:21 51.38502 -2.71013 625 ft 4 kts 354°
2026-04-20 13:21 51.38518 -2.71014 619 ft 1 kts 357°
2026-04-20 13:22 51.38524 -2.71015 616 ft 1 kts 356°
2026-04-20 13:22 51.38525 -2.71015 616 ft 0 kts 356°
2026-04-20 14:15 51.38506 -2.71013 625 ft 4 kts 356°
2026-04-20 14:15 51.38484 -2.71011 625 ft 4 kts 347°
2026-04-20 14:15 51.38466 -2.70993 618 ft 4 kts 284°
2026-04-20 14:16 51.38465 -2.70959 618 ft 1 kts 266°